User: anonymous   Login
Location: Brno
(49.2000°N, 16.6330°E)
Time: 02:39:35
(UTC+01:00)
Language:

Meteor 1-4 Rocket - Orbit

View from above orbital plane
View from above orbital plane
View from above satellite
View from above satellite

Ground track
Ground track

The orbit data is extracted from the following two-line orbital elements,

1 04394U 70037B   14328.85219932  .00006758  00000-0  28528-3 0  7345
2 04394 081.2462 029.4469 0047356 068.6346 291.9930 15.22064003422135
Epoch (UTC): 24 November 2014 20:27:10
Eccentricity: 0.0047356
inclination: 81.2462°
perigee height: 467 km
apogee height: 532 km
right ascension of ascending node: 29.4469°
argument of perigee: 68.6346°
revolutions per day: 15.22064003
mean anomaly at epoch: 291.9930°
orbit number at epoch: 42213

The dashed part of the orbit path shows where the satellite is in the earth's shadow,  

DLR